Regional Weather Roundup
Issued by NWS State College, PA

Home | Current Version | Previous Version | Text Only | Print | Product List | Glossary Off
Versions: 1 2 3 4 5 6 7 8 9 10 11 12 13 14 15 16 17 18 19 20 21 22 23 24 25 26 27 28 29 30 31 32 33 34 35 36 37 38 39 40 41 42 43 44 45 46 47 48 49 50

000
ASUS41 KCTP 230210
RWRCTP

REGIONAL WEATHER ROUNDUP
NATIONAL WEATHER SERVICE STATE COLLEGE PA
1000 PM EDT FRI MAY 22 2015

Note: "fair" indicates few or no clouds below 12,000 feet with no
significant weather and/or obstructions to visibility.

* = STATION THAT DOES NOT REPORT PRECIPITATION /E.G. RAIN...SNOW...ETC/
    THUNDER OR FOG.

PAZ002>004-007>009-013>016-020>023-029>032-230300-
WESTERN PENNSYLVANIA

CITY           SKY/WX    TMP DP  RH WIND       PRES   REMARKS
ERIE           CLEAR     46  33  60 S3        30.29R
MEADVILLE      CLEAR     46  21  37 CALM      30.28S
FRANKLIN*      CLEAR     45  18  33 N3        30.29S
NEW CASTLE     FAIR      44  31  60 CALM      30.31R
BEAVER COUNTY  NOT AVBL
BUTLER*        PTCLDY    46  25  42 NE6       30.31R
PITTSBURGH INT PTCLDY    54  31  41 N9        30.29R
PITTSBURGH     CLEAR     52  28  39 N9        30.29R
INDIANA*       CLEAR     50  30  46 CALM      30.32R
LATROBE        CLEAR     52  32  46 N7        30.30R
WASHINGTON CO* PTCLDY    52  28  40 N6        30.31R
$$

PAZ004>006-010>012-017>019-024>028-033>037-041-042-045-046-049>053-230300-
CENTRAL PENNSYLVANIA

CITY           SKY/WX    TMP DP  RH WIND       PRES   REMARKS
BRADFORD       FAIR      43  18  36 W7        30.26R
DUBOIS         CLEAR     46  22  38 NW8       30.27R
CLEARFIELD     CLEAR     50  30  46 NW7       30.26R
JOHNSTOWN      CLEAR     49  28  44 NW14      30.26R
ALTOONA        CLEAR     54  28  36 NW15G22   30.24R
STATE COLLEGE  NOT AVBL
WILLIAMSPORT   CLEAR     57  30  35 NW12      30.18R
SELINSGROVE    CLEAR     58  27  30 NW8       30.19R
FT INDIANTOWN  CLEAR     63  23  21 W9G20     30.17R
CAPITAL CITY   CLEAR     63  22  20 NW14G23   30.18R
HARRISBURG     CLEAR     64  22  20 NW17G25   30.17R
YORK           CLEAR     60  36  40 NW9       30.17R
$$

PAZ038>040-043-044-047-048-054-055-060>062-067>071-230300-
EASTERN PENNSYLVANIA

CITY           SKY/WX    TMP DP  RH WIND       PRES   REMARKS
SCRANTON       CLEAR     55  34  45 N7        30.15R
MOUNT POCONO   CLEAR     50  33  52 NW6       30.13R
ALLENTOWN      CLEAR     59  33  37 N9        30.13R
QUAKERTOWN*    CLEAR     63  27  25 NW6       30.13R
READING        CLEAR     61  24  24 NW13      30.13R
LANCASTER      FAIR      61  25  25 NW10      30.15R
COATESVILLE    CLEAR     59  32  36 NW12      30.14R
POTTSTOWN      CLEAR     62  24  23 VRB3      30.14R
BLUE BELL      CLEAR     64  32  29 W6        30.11R
DOYLESTOWN     CLEAR     63  32  31 NW7       30.11R
WILLOW GROVE   NOT AVBL
NORTH PHILA    CLEAR     68  29  23 W14G22    30.12R
PHILADELPHIA   CLEAR     69  35  28 W10       30.12R
$$



USA.gov is the U.S. government's official web portal to all federal, state and local government web resources and services.